Hourly Weather Passo Fundo

Today, 22 June, Tuesday

Time Temperature Precipitation Wind Pressure Humidity
00:00 +12°C° 0.1 mm 1 mps 708 mmHg 97%
01:00 +12°C° 0 mm 1 mps 708 mmHg 96%
02:00 +12°C° 0 mm 1 mps 708 mmHg 96%
03:00 +12°C° 0 mm 1 mps 708 mmHg 96%
04:00 +12°C° 0 mm 1 mps 708 mmHg 96%
05:00 +12°C° 0 mm 1 mps 708 mmHg 97%
06:00 +11°C° 0 mm 1 mps 708 mmHg 97%
07:00 +12°C° 0 mm 1 mps 709 mmHg 95%
08:00 +13°C° 0 mm 1 mps 709 mmHg 94%
09:00 +13°C° 0 mm 1 mps 710 mmHg 93%
10:00 +14°C° 0 mm 1 mps 710 mmHg 88%
11:00 +15°C° 0 mm 2 mps 710 mmHg 83%
12:00 +16°C° 0 mm 2 mps 710 mmHg 78%
13:00 +16°C° 0 mm 2 mps 710 mmHg 77%
14:00 +16°C° 0 mm 2 mps 709 mmHg 76%
15:00 +16°C° 0 mm 2 mps 709 mmHg 76%
16:00 +15°C° 0 mm 2 mps 709 mmHg 80%
17:00 +14°C° 0 mm 2 mps 709 mmHg 84%
18:00 +13°C° 0 mm 2 mps 709 mmHg 88%
19:00 +13°C° 0 mm 2 mps 709 mmHg 88%
20:00 +12°C° 0 mm 2 mps 709 mmHg 89%
21:00 +11°C° 0 mm 3 mps 709 mmHg 89%
22:00 +11°C° 0 mm 3 mps 709 mmHg 88%
23:00 +10°C° 0 mm 3 mps 709 mmHg 87%

Tomorrow, 23 June, Wednesday

Time Temperature Precipitation Wind Pressure Humidity
00:00 +10°C° 0 mm 3 mps 709 mmHg 86%
01:00 +10°C° 0 mm 4 mps 709 mmHg 87%
02:00 +10°C° 0 mm 4 mps 709 mmHg 87%
03:00 +10°C° 0 mm 4 mps 708 mmHg 88%
04:00 +9°C° 0 mm 5 mps 708 mmHg 87%
05:00 +9°C° 0 mm 5 mps 708 mmHg 87%
06:00 +10°C° 0 mm 5 mps 708 mmHg 87%
07:00 +10°C° 0 mm 5 mps 709 mmHg 87%
08:00 +10°C° 0 mm 6 mps 709 mmHg 86%
09:00 +11°C° 0 mm 6 mps 709 mmHg 85%
10:00 +13°C° 0 mm 6 mps 709 mmHg 81%
11:00 +15°C° 0 mm 6 mps 709 mmHg 77%
12:00 +17°C° 0 mm 6 mps 709 mmHg 73%
13:00 +17°C° 0 mm 6 mps 708 mmHg 73%
14:00 +17°C° 0 mm 6 mps 708 mmHg 73%
15:00 +17°C° 0 mm 5 mps 707 mmHg 73%
16:00 +17°C° 0 mm 5 mps 707 mmHg 74%
17:00 +16°C° 0 mm 5 mps 707 mmHg 75%
18:00 +17°C° 0 mm 4 mps 707 mmHg 76%
19:00 +16°C° 0 mm 5 mps 707 mmHg 76%
20:00 +15°C° 0 mm 6 mps 706 mmHg 76%
21:00 +15°C° 0 mm 7 mps 706 mmHg 76%
22:00 +15°C° 0 mm 7 mps 706 mmHg 78%
23:00 +14°C° 0 mm 7 mps 706 mmHg 79%

Day after tomorrow, 24 June, Thursday

Time Temperature Precipitation Wind Pressure Humidity
00:00 +14°C° 0 mm 7 mps 705 mmHg 80%
01:00 +14°C° 0 mm 7 mps 705 mmHg 81%
02:00 +12°C° 0 mm 7 mps 704 mmHg 82%
03:00 +12°C° 0 mm 7 mps 703 mmHg 82%
04:00 +12°C° 0 mm 7 mps 703 mmHg 81%
05:00 +12°C° 0 mm 7 mps 703 mmHg 80%
06:00 +12°C° 0 mm 7 mps 702 mmHg 79%
07:00 +14°C° 0 mm 7 mps 702 mmHg 79%
08:00 +14°C° 0 mm 7 mps 702 mmHg 78%
09:00 +15°C° 0 mm 7 mps 702 mmHg 77%
10:00 +17°C° 0.2 mm 7 mps 702 mmHg 74%
11:00 +20°C° 0.2 mm 7 mps 702 mmHg 71%
12:00 +21°C° 0.2 mm 7 mps 702 mmHg 68%
13:00 +21°C° 0.4 mm 7 mps 702 mmHg 72%
14:00 +20°C° 0.4 mm 6 mps 702 mmHg 75%
15:00 +20°C° 0.4 mm 6 mps 702 mmHg 79%
16:00 +19°C° 0.5 mm 6 mps 702 mmHg 82%
17:00 +17°C° 0.5 mm 5 mps 703 mmHg 86%
18:00 +16°C° 0.5 mm 5 mps 703 mmHg 89%
19:00 +16°C° 0.2 mm 5 mps 704 mmHg 90%
20:00 +16°C° 0.2 mm 5 mps 704 mmHg 90%
21:00 +15°C° 0.2 mm 4 mps 705 mmHg 91%
22:00 +15°C° 0 mm 4 mps 705 mmHg 93%
23:00 +14°C° 0 mm 3 mps 705 mmHg 95%

25 June, Friday

Time Temperature Precipitation Wind Pressure Humidity
00:00 +14°C° 0 mm 3 mps 705 mmHg 96%
01:00 +13°C° 0 mm 3 mps 705 mmHg 94%
02:00 +13°C° 0 mm 3 mps 705 mmHg 92%
03:00 +12°C° 0 mm 3 mps 705 mmHg 90%
04:00 +13°C° 0 mm 2 mps 706 mmHg 89%
05:00 +13°C° 0 mm 2 mps 706 mmHg 88%
06:00 +12°C° 0 mm 2 mps 706 mmHg 88%
07:00 +13°C° 0 mm 1 mps 706 mmHg 86%
08:00 +13°C° 0 mm 1 mps 707 mmHg 85%
09:00 +13°C° 0 mm 1 mps 707 mmHg 84%
10:00 +15°C° 0 mm 1 mps 708 mmHg 78%
11:00 +16°C° 0 mm 1 mps 708 mmHg 71%
12:00 +19°C° 0 mm 1 mps 708 mmHg 65%
13:00 +19°C° 0 mm 1 mps 707 mmHg 61%
14:00 +19°C° 0 mm 2 mps 707 mmHg 58%
15:00 +20°C° 0 mm 2 mps 706 mmHg 55%
16:00 +18°C° 0 mm 2 mps 706 mmHg 62%
17:00 +16°C° 0 mm 2 mps 706 mmHg 69%
18:00 +15°C° 0 mm 2 mps 706 mmHg 76%
19:00 +14°C° 0.1 mm 2 mps 706 mmHg 78%
20:00 +14°C° 0.1 mm 2 mps 706 mmHg 81%
21:00 +14°C° 0.1 mm 2 mps 706 mmHg 83%
22:00 +13°C° 0.6 mm 2 mps 706 mmHg 87%
23:00 +13°C° 0.6 mm 2 mps 706 mmHg 91%

26 June, Saturday

Time Temperature Precipitation Wind Pressure Humidity
00:00 +13°C° 0.6 mm 2 mps 706 mmHg 94%
01:00 +13°C° 0.5 mm 2 mps 706 mmHg 95%
02:00 +13°C° 0.5 mm 2 mps 706 mmHg 96%
03:00 +13°C° 0.5 mm 1 mps 705 mmHg 97%
04:00 +14°C° 0.8 mm 1 mps 705 mmHg 97%
05:00 +14°C° 0.8 mm 1 mps 705 mmHg 97%
06:00 +14°C° 0.8 mm 1 mps 705 mmHg 97%
07:00 +14°C° 1 mm 1 mps 705 mmHg 97%
08:00 +15°C° 1 mm 1 mps 706 mmHg 97%
09:00 +15°C° 1 mm 1 mps 706 mmHg 97%
10:00 +16°C° 4.2 mm 2 mps 706 mmHg 97%
11:00 +16°C° 4.2 mm 2 mps 706 mmHg 97%
12:00 +17°C° 4.2 mm 3 mps 706 mmHg 97%
13:00 +17°C° 2.9 mm 2 mps 705 mmHg 97%
14:00 +16°C° 2.9 mm 2 mps 705 mmHg 98%
15:00 +16°C° 2.9 mm 2 mps 705 mmHg 98%
16:00 +16°C° 1.3 mm 2 mps 704 mmHg 98%
17:00 +16°C° 1.3 mm 2 mps 704 mmHg 97%
18:00 +16°C° 1.3 mm 2 mps 704 mmHg 97%
19:00 +16°C° 1 mm 2 mps 705 mmHg 97%
20:00 +16°C° 1 mm 2 mps 705 mmHg 97%
21:00 +16°C° 1 mm 2 mps 705 mmHg 97%
22:00 +16°C° 0.4 mm 2 mps 705 mmHg 97%
23:00 +16°C° 0.4 mm 1 mps 705 mmHg 97%

27 June, Sunday

Time Temperature Precipitation Wind Pressure Humidity
00:00 +16°C° 0.4 mm 1 mps 705 mmHg 97%
01:00 +16°C° 0.6 mm 1 mps 705 mmHg 97%
02:00 +15°C° 0.6 mm 1 mps 705 mmHg 97%
03:00 +15°C° 0.6 mm 1 mps 705 mmHg 98%
04:00 +15°C° 2.4 mm 1 mps 705 mmHg 98%
05:00 +15°C° 2.4 mm 1 mps 704 mmHg 98%
06:00 +15°C° 2.4 mm 2 mps 704 mmHg 98%
07:00 +14°C° 2.7 mm 2 mps 705 mmHg 98%
08:00 +13°C° 2.7 mm 3 mps 705 mmHg 97%
09:00 +12°C° 2.7 mm 4 mps 706 mmHg 97%
10:00 +12°C° 0.8 mm 4 mps 706 mmHg 96%
11:00 +12°C° 0.8 mm 4 mps 706 mmHg 96%
12:00 +11°C° 0.8 mm 4 mps 707 mmHg 95%
13:00 +11°C° 0.7 mm 4 mps 707 mmHg 96%
14:00 +10°C° 0.7 mm 4 mps 707 mmHg 96%
15:00 +10°C° 0.7 mm 4 mps 707 mmHg 96%
16:00 +10°C° 0.4 mm 4 mps 707 mmHg 95%
17:00 +10°C° 0.4 mm 4 mps 708 mmHg 95%
18:00 +9°C° 0.4 mm 3 mps 708 mmHg 94%
19:00 +9°C° 0.1 mm 3 mps 709 mmHg 95%
20:00 +9°C° 0.1 mm 3 mps 709 mmHg 95%
21:00 +8°C° 0.1 mm 3 mps 710 mmHg 95%
22:00 +8°C° 0 mm 3 mps 710 mmHg 95%
23:00 +7°C° 0 mm 2 mps 710 mmHg 95%
Show more

We Need Your Consent

Meteoprog and our Service Providers may store and access personal data such as cookies, device identifiers or other similar technologies on your device and process such data to personalise content and ads, as well as provide social media features and to analyse the traffic.

  • Store and/or access information on your device

    Cookies, device identifiers or other information can be stored or accessed on your device for the purposes indicated above.

  • Personalised ads and content, ad and content measurement, audience insights, and products development

    Ads and content can be personalised based on a profile. More data can be added to better personalise ads and content. Ad and content performance can be measured. Insights about the audience who saw the ads and content can be derived. Such data can be used to develop or improve user’s experience, systems and software.

By clicking ‘I Agree’ you will allow the use of indicated cookies, device identifiers, web beacons or other similar technologies. Your settings can be changed in the browser on your device.

For certain purposes, legitimate interests may be relied on, rather than consent. You can read more about this in our Privacy and Cookie Policy.